TimeCDT,TemperatureF,Dew PointF,Humidity,Sea Level PressureIn,VisibilityMPH,Wind Direction,Wind SpeedMPH,Gust SpeedMPH,PrecipitationIn,Events,Conditions,WindDirDegrees,DateUTC
12:52 AM,62.1,53.1,72,30.08,-9999.0,North,3.5,-,N/A,,Unknown,360,2013-07-02 05:52:00
1:52 AM,61.0,53.1,75,30.07,-9999.0,Calm,Calm,-,N/A,,Unknown,0,2013-07-02 06:52:00
2:52 AM,60.1,53.1,78,30.07,-9999.0,Calm,Calm,-,N/A,,Unknown,0,2013-07-02 07:52:00
3:52 AM,59.0,53.1,81,30.08,-9999.0,Calm,Calm,-,N/A,,Unknown,0,2013-07-02 08:52:00
4:52 AM,60.1,53.1,78,30.08,-9999.0,North,3.5,-,N/A,,Unknown,350,2013-07-02 09:52:00
5:52 AM,59.0,53.1,81,30.10,-9999.0,NNW,3.5,-,N/A,,Unknown,340,2013-07-02 10:52:00
6:52 AM,60.1,54.0,80,30.11,-9999.0,Calm,Calm,-,N/A,,Unknown,0,2013-07-02 11:52:00
7:52 AM,66.0,55.0,68,30.11,-9999.0,North,3.5,-,N/A,,Unknown,350,2013-07-02 12:52:00
8:52 AM,69.1,55.9,63,30.12,-9999.0,North,5.8,-,N/A,,Unknown,360,2013-07-02 13:52:00
9:52 AM,75.0,55.0,50,30.11,-9999.0,North,6.9,-,N/A,,Unknown,360,2013-07-02 14:52:00
10:52 AM,77.0,52.0,42,30.11,-9999.0,North,4.6,-,N/A,,Unknown,360,2013-07-02 15:52:00
11:52 AM,80.1,51.1,36,30.10,-9999.0,North,6.9,-,N/A,,Unknown,10,2013-07-02 16:52:00
12:52 PM,82.0,52.0,35,30.09,-9999.0,NNE,8.1,-,N/A,,Unknown,20,2013-07-02 17:52:00
1:52 PM,82.9,52.0,34,30.08,-9999.0,NNE,11.5,-,N/A,,Unknown,30,2013-07-02 18:52:00
2:52 PM,81.0,55.0,41,30.08,-9999.0,NNE,11.5,-,N/A,,Unknown,20,2013-07-02 19:52:00
3:52 PM,82.0,52.0,35,30.06,-9999.0,ENE,10.4,-,N/A,,Unknown,70,2013-07-02 20:52:00
4:52 PM,82.0,53.1,37,30.04,-9999.0,NNE,4.6,-,N/A,,Unknown,20,2013-07-02 21:52:00
5:52 PM,81.0,55.0,41,30.04,-9999.0,ENE,5.8,-,N/A,,Unknown,60,2013-07-02 22:52:00
6:52 PM,77.0,55.9,48,30.04,-9999.0,ENE,5.8,-,N/A,,Unknown,60,2013-07-02 23:52:00
7:21 PM,63.0,55.9,78,30.11,-9999.0,Variable,6.9,19.6,0.09,,Unknown,0,2013-07-03 00:21:00
7:52 PM,62.1,55.9,80,30.08,-9999.0,SSW,5.8,-,0.36,,Unknown,210,2013-07-03 00:52:00
8:52 PM,64.9,57.0,75,30.10,-9999.0,North,9.2,16.1,N/A,,Unknown,10,2013-07-03 01:52:00
9:52 PM,63.0,59.0,87,30.05,-9999.0,Variable,3.5,-,0.02,,Unknown,0,2013-07-03 02:52:00
10:52 PM,63.0,59.0,87,30.04,-9999.0,Calm,Calm,-,N/A,,Unknown,0,2013-07-03 03:52:00
11:52 PM,63.0,57.9,84,30.05,-9999.0,Calm,Calm,-,N/A,,Unknown,0,2013-07-03 04:52:00